Αρχική σελίδα
METAR-TAF:

METAR-TAF

Αεροδρόμια :

Strother Field

Winfield-Arkansas City, Κάνσας, Ηνωμένες Πολιτείες Αμερικής

γεωγραφικό πλάτος: 37-10-05N, γεωγραφικό μήκος: 097-02-13W, υψόμετρο: 353 μ

Παρών καιρός

Η αναφορά έγινε 51 λεπτά πριν, στις 00:54 UTC
Άνεμος 17 kt από Β με ριπές μέχρι 27 kt
Θερμοκρασία 2°C
Υγρασία 93%
Πίεση 1023 hPa
Ορατότητα: 12.9 χλμ
Νεφοσκεπής σε ύψος 900 πόδια

METAR: KWLD 180054Z AUTO 01017G27KT 8SM OVC009 02/01 A3022 RMK AO2 PK WND 01027/0054 SLP242 T00170006

Χρόνος: 19:45 (01:45 UTC)


TAF: λείπει

Μετεωρολογικές αναφορές και προγνώσεις για περισσότερα από 4000 αεροδρόμια (δελτία METAR και TAF).

Οι διαθέσιμοι σταθμοί απεικονίζονται στο χάρτη με κίτρινες και κόκκινες κουκκίδες.

Μετακινήστε το ποντίκι πάνω από τις κουκκίδες για να δείτε το όνομα του σταθμού.

Στη συνέχεια, κάντε κλικ για να δείτε τις μετεωρολογικές αναφορές και τις προγνώσεις καιρού.

Για να αλλάξετε το χάρτη: κάντε κλικ στα πράσινα κουμπιά με τον μαύρο σταυρό για να ζουμάρετε, στο πράσινο κουμπί με την παύλα για να αφαιρέσετε το ζουμ ή στα πράσινα βέλη για να αντιπαραβάλλετε χάρτες.


METAR-TAF: